Flag for Denmark Weather past 2 weeks in Copenhagen, Denmark

Now
81 °F

Sunny.


Feels Like: 81 °F
Forecast: 63 / 81 °F
Wind: 2 mph from Southeast

Location: Koebenhavn-Kastrup Airport

Current Time: Jul 4, 2015 at 1:18:53 PM

Latest Report: Jul 4, 2015 at 12:50 PM


Visibility: 10 mi

Pressure: 30.15 "Hg

Humidity: 51%

Dew point: 61 °F

Location of CopenhagenLocation

Historic Weather in Copenhagen — Graph

°F

Copenhagen temperature yesterday

Maximum temperature yesterday: 79 °F (at 3:50 PM)
Minimum temperature yesterday: 63 °F (at 12:20 AM)
Average temperature yesterday: 70 °F

Past Weeks' High & Low Weather Summary

 TemperatureHumidityPressure
High79 °F (Jul 3, 3:50 PM)100% (Jun 19, 12:20 PM)30.39 "Hg (Jun 19, 12:20 PM)
Low48 °F (Jun 26, 3:20 AM)39% (Jul 2, 2:50 PM)29.62 "Hg (Jun 23, 12:50 AM)
Average61 °F74%30.03 "Hg
* Reported Jun 19 12:20 PM — Jul 4 12:20 PM, Copenhagen, Weather by CustomWeather, © 2015

Note: Actual official high and low records may vary slightly from our data, if they occured in-between our weather recording intervals... More about our weather records

Advertising

Copenhagen weather history for previous 24 hours

 ConditionsComfort  
Time TempWeatherWind HumidityBarometerVisibility
12:20 PM
Sat, Jul 4
79 °FSunny.2 mph51%30.15 "Hg10 mi
11:50 AM77 °FPassing clouds.5 mph57%30.15 "HgN/A
11:20 AM77 °FSunny.2 mph54%30.18 "Hg10 mi
10:50 AM75 °FSunny.3 mph54%30.18 "Hg10 mi
10:20 AM75 °FSunny.1 mph57%30.18 "Hg10 mi
9:50 AM75 °FSunny.2 mph57%30.18 "Hg10 mi
9:20 AM73 °FSunny.1 mph65%30.18 "Hg10 mi
8:50 AM73 °FSunny.1 mph61%30.18 "Hg10 mi
8:20 AM72 °FSunny.No wind65%30.18 "Hg10 mi
7:50 AM70 °FSunny.1 mph69%30.18 "Hg10 mi
7:20 AM68 °FSunny.1 mph73%30.18 "Hg10 mi
6:50 AM68 °FSunny.3 mph73%30.18 "Hg10 mi
6:20 AM66 °FSunny.1 mph83%30.18 "Hg10 mi
5:50 AM64 °FSunny.3 mph83%30.18 "Hg10 mi
5:20 AM63 °FClear.3 mph88%30.21 "Hg10 mi
4:50 AM61 °FClear.5 mph94%30.21 "Hg10 mi
4:20 AM63 °FClear.5 mph83%30.21 "Hg10 mi
3:50 AM63 °FClear.5 mph83%30.21 "Hg10 mi
3:20 AM64 °FClear.2 mph78%30.21 "Hg10 mi
2:50 AM64 °FClear.2 mph78%30.21 "Hg10 mi
2:20 AM64 °FClear.3 mph78%30.24 "Hg10 mi
1:50 AM64 °FClear.2 mph78%30.24 "Hg10 mi
1:20 AM64 °FClear.2 mph78%30.24 "Hg10 mi
12:50 AM64 °FClear.2 mph78%30.24 "Hg10 mi
12:20 AM66 °FClear.2 mph73%30.24 "Hg10 mi
11:50 PM
Fri, Jul 3
66 °FClear.7 mph73%30.24 "Hg10 mi
11:20 PM68 °FClear.5 mph64%30.27 "Hg10 mi
10:50 PM66 °FSunny.3 mph73%30.27 "Hg10 mi
10:20 PM66 °FSunny.5 mph78%30.27 "Hg10 mi
9:50 PM70 °FSunny.3 mph64%30.27 "Hg10 mi
9:20 PM70 °FSunny.5 mph69%30.27 "Hg10 mi
8:50 PM72 °FSunny.6 mph65%30.27 "Hg10 mi
8:20 PM73 °FSunny.7 mph57%30.27 "Hg10 mi
7:50 PM75 °FSunny.8 mph54%30.27 "Hg10 mi
7:20 PM75 °FSunny.7 mph50%30.27 "Hg10 mi
6:50 PM75 °FSunny.7 mph50%30.27 "Hg10 mi
6:20 PM75 °FSunny.10 mph50%30.27 "Hg10 mi
5:50 PM75 °FSunny.9 mph50%30.27 "Hg10 mi
5:20 PM75 °FSunny.7 mph54%30.27 "Hg10 mi
4:50 PM75 °FSunny.8 mph54%30.27 "Hg10 mi
4:20 PM77 °FSunny.9 mph54%30.30 "Hg10 mi
3:50 PM79 °FSunny.10 mph48%30.30 "Hg10 mi
3:20 PM77 °FSunny.9 mph47%30.30 "Hg10 mi
2:50 PM77 °FSunny.9 mph47%30.30 "Hg10 mi
2:20 PM75 °FSunny.8 mph47%30.30 "Hg10 mi
1:50 PM77 °FSunny.9 mph47%30.30 "Hg10 mi
1:20 PM75 °FSunny.9 mph54%30.30 "Hg10 mi
Weather by CustomWeather, © 2015

See weather overviewHow to use our weather pages